Location: Wangen+im+Allg�u
(47.7098°N, 9.8383°E)
Time: 01:27:33
(UTC+02:00)

ISS - Visible Passes

Search period start: 22 October 2019 00:00
Search period end: 31 October 2019 23:00
Orbit: 411 x 421 km, 51.6° (Epoch: 21 October)

Date Brightness Start Highest point End Pass type
(mag) Time Alt. Az. Time Alt. Az. Time Alt. Az.
24 Oct -0.9 06:49:25 10° S 06:51:36 16° SE 06:53:47 10° E visible
25 Oct -0.4 06:02:57 10° SE 06:03:14 10° SE 06:03:31 10° SE visible
26 Oct -2.3 06:47:42 10° SSW 06:50:49 36° SE 06:53:56 10° ENE visible
27 Oct -1.6 05:00:46 17° S 05:02:20 23° SE 05:05:05 10° E visible
28 Oct -0.8 04:14:37 14° ESE 04:14:37 14° ESE 04:15:55 10° E visible
28 Oct -3.7 05:47:32 16° WSW 05:50:10 77° SSE 05:53:33 10° ENE visible
29 Oct -3.2 05:01:15 49° S 05:01:34 51° SSE 05:04:51 10° ENE visible
30 Oct -1.0 04:14:49 19° E 04:14:49 19° E 04:16:05 10° ENE visible
30 Oct -3.6 05:47:44 23° W 05:49:38 60° NNW 05:52:58 10° ENE visible
31 Oct -3.6 05:01:13 71° NE 05:01:13 71° NE 05:04:18 10° ENE visible
